Regional Weather Roundup
Issued by NWS

Home | Current Version | Previous Version | Text Only | Print | Product List | Glossary Off
Versions: 1 2 3 4 5 6 7 8 9 10 11 12 13 14 15 16 17 18 19 20 21 22 23 24 25 26 27 28 29 30 31 32 33 34 35 36 37 38 39 40 41 42 43 44 45 46 47 48 49 50

000
ASUS45 KSLC 041710
RWRUT

UTAH REGIONAL WEATHER ROUNDUP
NATIONAL WEATHER SERVICE SALT LAKE CITY UT
1000 AM MST WED MAR 04 2015

UTZ001>011-023>025-041800-

NORTHERN UTAH

CITY           SKY/WX    TMP DP  RH WIND       PRES   REMARKS
BRIGHAM CITY   SUNNY     30  16  54 CALM      30.21R
HILL AFB       SUNNY     29  11  46 SW5       30.18R WCI  24
LOGAN          SUNNY     29  17  61 CALM      30.19R
OGDEN          SUNNY     32  17  54 VRB3      30.18R
PROVO AIRPORT  MOSUNNY   30  21  69 CALM      30.20R
SALT LAKE CITY MOSUNNY   33  23  66 W7        30.20R WCI  27
VERNAL         MOSUNNY   26  12  55 E3        30.10R
WENDOVER       SUNNY     30  18  59 E5        30.22R WCI  25
HEBER CITY     SUNNY     23  14  68 CALM      30.14S
WEST JORDAN    SUNNY     30  21  69 CALM      30.20R

$$

UTZ012>022-026-027-041800-

SOUTHERN/CENTRAL UTAH

CITY           SKY/WX    TMP DP  RH WIND       PRES   REMARKS
BLANDING       SUNNY     30  14  49 E7        30.10R WCI  24
BRYCE CANYON   SUNNY     15   6  67 E5        30.08R WCI   8
CEDAR CITY     SUNNY     21  14  74 CALM      30.13R
DELTA          SUNNY     29  23  77 SW3       30.20R
HANKSVILLE     SUNNY     36  19  51 NW5       30.15S WCI  32
MILFORD        SUNNY     26  19  74 CALM      30.18R
MOAB/CYNLANDS  SUNNY     34  21  59 NW5       30.10R WCI  30
PRICE          NOT AVBL
ST GEORGE      SUNNY     39  21  48 W3        30.18R
KANAB          SUNNY     34  14  44 N8        30.15R WCI  27

$$

REGIONAL REPORTS     COLORADO/ARIZONA

CITY           SKY/WX    TMP DP  RH WIND       PRES   REMARKS
CRAIG, CO      LGT SNOW  13   8  81 CALM      30.09R VSB 3/4
GRAND JUNCTION SUNNY     31  14  49 CALM      30.09R
RIFLE          SUNNY     29   8  41 CALM      30.08R
MONTROSE       MOSUNNY   28  14  55 NW5       30.08R WCI  23
CORTEZ         SUNNY     31  15  52 NW7       30.02R WCI  24
PAGE, AZ       SUNNY     38  14  37 NW7       30.11R WCI  33
GRAND CANYON   SUNNY     31  21  66 NE9       30.06R WCI  23
KINGMAN        SUNNY     43  26  51 N13       30.10R
FLAGSTAFF      SUNNY     29  19  66 NE10      30.03R WCI  20

$$

REGIONAL REPORTS    NEVADA/IDAHO/WYOMING

CITY           SKY/WX    TMP DP  RH WIND       PRES   REMARKS
LAS VEGAS, NV  SUNNY     49  14  24 N12G20    30.14R
ELY            SUNNY     20  11  68 S3        30.17R
ELKO           SUNNY     29  18  63 SW6       30.20R WCI  23
POCATELLO, ID  SUNNY     24  13  62 CALM      30.23R
BURLEY         SUNNY     28  11  48 VRB5      30.22R WCI  23
EVANSTON, WY   MOSUNNY   18  13  80 SW10      30.07R WCI   6
ROCK SPRINGS   SUNNY      7   1  76 CALM      30.07R

$$


USA.gov is the U.S. government's official web portal to all federal, state and local government web resources and services.